Biloxi, MS

7:18 AM CST on February 23, 2018 (GMT -0600)
Keesler Air Force Base

Weather History for KBIX - March, 2013

Change the Weather History Date:

Friday, March 22, 2013

  Actual Average Record
Temperature  
Mean Temperature 58 °F -  
Max Temperature 66 °F 69 °F 85 °F (2017)
Min Temperature 51 °F 49 °F 31 °F (1986)
Degree Days  
Heating Degree Days 6    
Growing Degree Days 8 (Base 50)    
Moisture  
Dew Point 55 °F    
Average Humidity 76    
Maximum Humidity 84    
Minimum Humidity 64    
Precipitation  
Precipitation 0.01 in - - ()
Sea Level Pressure  
Sea Level Pressure 29.87 in    
Wind  
Wind Speed 11 mph (ESE)    
Max Wind Speed 20 mph    
Max Gust Speed 28 mph    
Visibility 10 miles    
Events Rain    
Averages and records for this station are not official NWS values.
T = Trace of Precipitation, MM = Missing Value Source: NWS Daily Summary

Daily Weather History Graph

Daily Weather History Graph

Search for Another Location

Airport or City:

Trip Planner

Search our weather history database for the weather conditions in past years. The results will help you decide how hot, cold, wet, or windy it might be!

Date:

Astronomy

Mar. 22, 2013 Rise Set
Actual Time 6:56 AM CDT 7:08 PM CDT
Civil Twilight 6:32 AM CDT 7:32 PM CDT
Nautical Twilight 6:04 AM CDT 8:00 PM CDT
Astronomical Twilight 5:36 AM CDT 8:28 PM CDT
Moon 2:52 PM CDT (3/22) 3:39 AM CDT (3/22)
Length of Visible Light 12h 59m
Length of Day
12h 11m
Waxing Gibbous, 77% of the Moon is Illuminated
Mar 22
Waxing Gibbous
Mar 27
Full
Apr 2
Last Quarter
Apr 10
New
Apr 18
First Quarter

Hourly Weather History & Observations

Time (CDT) Temp. Dew Point Humidity Pressure Visibility Wind Dir Wind Speed Gust Speed Precip Events Conditions
12:58 AM 55.9 °F 44.6 °F 66% 29.91 in 10.0 mi NE 4.6 mph - N/A   Overcast
1:58 AM 53.2 °F 44.8 °F 73% 29.91 in 10.0 mi NE 5.8 mph - N/A   Overcast
2:58 AM 51.3 °F 43.9 °F 76% 29.90 in 10.0 mi ENE 3.5 mph - N/A   Scattered Clouds
3:58 AM 54.0 °F 44.4 °F 70% 29.89 in 10.0 mi East 5.8 mph - N/A   Overcast
4:58 AM 55.2 °F 46.8 °F 73% 29.87 in 10.0 mi East 9.2 mph - N/A   Overcast
5:58 AM 56.3 °F 46.8 °F 70% 29.86 in 10.0 mi East 8.1 mph - N/A   Overcast
6:58 AM 56.7 °F 46.8 °F 69% 29.89 in 10.0 mi East 6.9 mph - N/A   Overcast
7:58 AM 57.6 °F 49.1 °F 73% 29.91 in 10.0 mi NE 8.1 mph - N/A   Overcast
8:58 AM 62.6 °F 50.7 °F 65% 29.89 in 10.0 mi SE 11.5 mph - N/A   Scattered Clouds
9:58 AM 64.4 °F 52.0 °F 64% 29.90 in 10.0 mi SE 17.3 mph - N/A   Overcast
10:58 AM 64.9 °F 52.5 °F 64% 29.91 in 10.0 mi SE 17.3 mph - N/A   Overcast
11:58 AM 65.3 °F 53.1 °F 65% 29.92 in 10.0 mi ESE 11.5 mph 23.0 mph N/A   Overcast
12:05 PM 64.4 °F 53.6 °F 68% 29.91 in 10.0 mi ESE 15.0 mph 23.0 mph N/A Rain Light Rain
12:15 PM 64.4 °F 53.6 °F 68% 29.91 in 10.0 mi ESE 13.8 mph - N/A   Overcast
12:33 PM 64.4 °F 55.4 °F 73% 29.91 in 7.0 mi SE 12.7 mph - N/A Rain Light Rain
12:48 PM 64.4 °F 55.4 °F 73% 29.90 in 10.0 mi ESE 13.8 mph 19.6 mph N/A   Overcast
12:52 PM 64.4 °F 55.4 °F 73% 29.90 in 10.0 mi SE 15.0 mph 19.6 mph N/A Rain Light Rain
12:58 PM 63.7 °F 56.1 °F 76% 29.90 in 10.0 mi SE 16.1 mph 19.6 mph 0.01 in Rain Light Rain
1:03 PM 64.4 °F 57.2 °F 77% 29.89 in 10.0 mi SE 16.1 mph - N/A   Overcast
1:13 PM 66.2 °F 57.2 °F 73% 29.88 in 10.0 mi ESE 18.4 mph - N/A Rain Light Rain
1:23 PM 66.2 °F 57.2 °F 73% 29.87 in 10.0 mi ESE 18.4 mph 27.6 mph N/A   Mostly Cloudy
1:58 PM 66.4 °F 56.3 °F 70% 29.88 in 10.0 mi SE 17.3 mph 23.0 mph 0.00 in   Mostly Cloudy
2:08 PM 66.2 °F 55.4 °F 68% 29.86 in 10.0 mi SE 19.6 mph 25.3 mph N/A   Overcast
2:15 PM 64.4 °F 57.2 °F 77% 29.86 in 10.0 mi SE 18.4 mph 24.2 mph N/A Rain Light Rain
2:25 PM 64.4 °F 57.2 °F 77% 29.86 in 10.0 mi SE 16.1 mph 24.2 mph N/A Rain Light Rain
2:28 PM 64.4 °F 57.2 °F 77% 29.86 in 10.0 mi ESE 18.4 mph 24.2 mph N/A   Overcast
2:53 PM 64.4 °F 57.2 °F 77% 29.84 in 10.0 mi ESE 15.0 mph 24.2 mph N/A   Overcast
2:58 PM 65.3 °F 57.2 °F 75% 29.85 in 10.0 mi SE 16.1 mph 24.2 mph 0.00 in   Overcast
3:37 PM 64.4 °F 57.2 °F 77% 29.85 in 10.0 mi ESE 13.8 mph 21.9 mph N/A Rain Light Rain
3:54 PM 64.4 °F 59.0 °F 83% 29.84 in 10.0 mi East 10.4 mph - N/A   Overcast
3:58 PM 63.5 °F 58.6 °F 84% 29.85 in 10.0 mi East 10.4 mph - 0.00 in   Overcast
4:15 PM 64.4 °F 57.2 °F 77% 29.83 in 10.0 mi East 12.7 mph - N/A Rain Light Rain
4:53 PM 64.4 °F 59.0 °F 83% 29.83 in 10.0 mi East 10.4 mph - N/A   Overcast
4:58 PM 64.4 °F 58.8 °F 82% 29.84 in 10.0 mi ESE 11.5 mph - 0.00 in   Overcast
5:58 PM 65.5 °F 58.1 °F 77% 29.84 in 10.0 mi ESE 10.4 mph - N/A   Overcast
6:58 PM 65.5 °F 58.1 °F 77% 29.85 in 10.0 mi East 12.7 mph - N/A   Overcast
7:38 PM 64.4 °F 59.0 °F 83% 29.84 in 10.0 mi East 12.7 mph 19.6 mph N/A   Overcast
7:58 PM 64.9 °F 59.0 °F 81% 29.85 in 10.0 mi ESE 15.0 mph 21.9 mph N/A   Overcast
8:18 PM 64.4 °F 59.0 °F 83% 29.84 in 10.0 mi ESE 15.0 mph 23.0 mph N/A   Overcast
8:58 PM 65.1 °F 59.0 °F 81% 29.86 in 10.0 mi ESE 15.0 mph 24.2 mph N/A   Overcast
9:28 PM 64.4 °F 59.0 °F 83% 29.85 in 10.0 mi ESE 16.1 mph - N/A   Overcast
9:58 PM 64.4 °F 59.5 °F 84% 29.86 in 10.0 mi ESE 13.8 mph 20.7 mph N/A   Overcast
10:13 PM 64.4 °F 59.0 °F 83% 29.86 in 10.0 mi ESE 12.7 mph 21.9 mph N/A   Overcast
10:23 PM 64.4 °F 59.0 °F 83% 29.86 in 10.0 mi ESE 11.5 mph - N/A   Overcast
10:28 PM 64.4 °F 59.0 °F 83% 29.86 in 10.0 mi ESE 13.8 mph - N/A   Overcast
10:58 PM 64.2 °F 59.4 °F 84% 29.87 in 10.0 mi ESE 10.4 mph - N/A   Overcast
11:58 PM 64.4 °F 59.2 °F 83% 29.88 in 10.0 mi East 10.4 mph 18.4 mph N/A   Overcast